www.pogodaiklimat.ru

Погода и климат >> Архив погоды >> Россия >> Чечня >> Гудермес


АРХИВ ПОГОДЫ в Гудермесе

Время (UTC), дата Ветер
(напр.,м/с)
 
Видим.   Явления Облачность Т
(С)
Тd
(С)
f
(%)
Тe
(С)
Тes
(С)
Комфортность P
(гПа)
Po
(гПа)
Тmin
(С)
Tmax
(С)
R
(мм)
R24
(мм)
S
(см)
06 15.04 В 2 4000 м дымка {туман} 10/10 100 м
[St]
+10.3 +10.1 99 +9 +9 1008.5 999.5
09 15.04 С 2 4000 м дымка 10/10 200 м
[St]
+11.2 +9.6 90 +10 +10 1010.3 1001.4
12 15.04 З 3 20 км 10/10 1000 м
[Sc]
+13.1 +10.4 84 +12 +12 1012.0 1003.0
15 15.04 З 2 20 км 8/8 1000 м
[Sc]
+15.0 +10.7 75 +15 +15 1011.7 1002.8 +15.6
18 15.04 З 2 10 км 9/9 600 м
[Sc]
+14.2 +10.9 81 +14 +14 1012.6 1003.6
21 15.04 З 1 4000 м дымка 10/10 300 м
[St]
+12.3 +10.0 86 +12 +12 1011.0 1002.0
00 16.04 штиль 0 4000 м дымка 10/10 200 м
[St]
+10.1 +8.9 92 +9 +9 1010.2 1001.1
03 16.04 З 3 10 км 9/0 600 м
[As trans]
+11.0 +9.7 92 +9 +9 1009.7 1000.7 +10.0
06 16.04 З 4 20 км 9/0
[Ac inh]
+16.0 +11.7 76 +15 +18 1010.9 1001.9
09 16.04 ЮЗ 2 20 км 9/5 600 м
[Cb cap Ac inh]
+16.4 +11.9 75 +17 +20 1010.6 1001.7
12 16.04 З 3 20 км 9/3 600 м
[Cb cap Ac inh]
+17.9 +10.7 63 +18 +20 1009.9 1001.1
15 16.04 ЮЗ 4 10 км в посл. час ливневой дождь 9/8 600 м
[Cb cap Ac inh]
+14.9 +12.1 83 +14 +14 1010.0 1001.1 +17.9 0.4
18 16.04 ЮЗ 2 4000 м слаб. ливневой дождь 10/10 600 м
[Cb cap]
+13.6 +12.5 93 +13 +13 1011.6 1002.6
21 16.04 ЮЗ 2 10 км {ливн. осадки} 10/10 600 м
[Sc diur, vesp]
+13.0 +11.9 93 +12 +12 1010.6 1001.5
00 17.04 З 2 4000 м дымка {ливн. осадки} 10/10 600 м
[Sc]
+12.9 +11.6 92 +12 +12 1010.0 1001.0
03 17.04 ЮЗ 1 4000 м дымка 10/10 600 м
[Sc]
+12.6 +10.9 89 +13 +13 1009.5 1000.5 +12.5 6
06 17.04 З 3 20 км 10/10 1000 м
[Sc]
+12.6 +10.1 85 +11 +11 1009.1 1000.1
09 17.04 ЮЗ 3 4000 м слаб. ливневой дождь 10/10 300 м
[Cb cap]
+12.5 +11.0 91 +11 +11 1008.3 999.3
12 17.04 ЮЗ 3 4000 м слаб. ливневой дождь 10/10 300 м
[Cb cap]
+11.9 +10.2 89 +10 +10 1008.4 999.4
15 17.04 ЮЗ 5 4000 м слаб. ливневой дождь 10/10 300 м
[Cb cap]
+10.9 +9.1 89 +8 +8 1008.7 999.7 +13.0 8
18 17.04 З 4 4000 м слаб. ливневой дождь 10/10 300 м
[Cb cap]
+10.4 +9.3 93 +8 +8 1009.8 1000.7
21 17.04 З 3 4000 м слаб. ливневой дождь 10/10 300 м
[Cb cap]
+8.8 +7.8 93 +6 +6 1012.1 1003.0
00 18.04 З 4 4000 м слаб. ливневой дождь 10/10 300 м
[Cb cap]
+6.9 +5.8 93 +3 +3 1014.8 1005.6
03 18.04 СЗ 3 4000 м слаб. ливневой дождь 10/10 300 м
[Cb cap]
+4.3 +3.1 92 +1 +1 1017.9 1008.6 +4.1 16
06 18.04 З 4 4000 м слаб. ливневой дождь 10/6 600 м
[Cb cap Ac inh]
+3.2 +2.1 92 -2 -1 1020.5 1011.1 +2.8
09 18.04 З 2 4000 м слаб. ливневой дождь 9/5 600 м
[Cb cap Ac inh]
+4.5 +2.5 87 +2 +5 1021.5 1012.1
12 18.04 З 4 4000 м слаб. ливневой дождь 9/5 600 м
[Cb cap Ac inh]
+4.3 +1.9 84 0 +1 1022.1 1012.7
15 18.04 З 1 4000 м слаб. дождь 10/0 600 м
[As op]
+4.3 +2.5 88 +3 +3 1022.4 1013.0 +5.0 6
18 18.04 ЮЗ 2 4000 м слаб. дождь 10/0 600 м
[As op]
+3.9 +2.4 90 +1 +1 1023.2 1013.8
21 18.04 З 2 4000 м дымка {дождь} 10/10 600 м
[Sc]
+4.1 +2.7 91 +1 +1 1022.4 1013.0
00 19.04 ЮЗ 2 4000 м дымка {дождь} 10/10 600 м
[Sc]
+4.3 +2.3 87 +2 +2 1021.4 1012.0
03 19.04 В 2 4000 м дымка 10/10 300 м
[St]
+4.5 +3.3 92 +2 +2 1021.4 1012.0 +3.8 1
06 19.04 В 3 10 км 10/10 600 м
[St]
+6.1 +2.7 79 +3 +3 1021.7 1012.4
09 19.04 В 4 20 км 9/9 600 м
[Sc diur, vesp]
+8.4 +1.0 60 +6 +7 1021.3 1012.1
12 19.04 В 5 20 км 9/9 600 м
[Cb calv]
+7.8 +2.4 69 +4 +5 1020.9 1011.7
15 19.04 В 4 20 км 9/9 600 м
[Cb cap]
+6.7 +2.9 77 +3 +3 1021.5 1012.2 +9.2
18 19.04 В 4 10 км 9/9 600 м
[Cb cap]
+5.5 +2.8 83 +2 +2 1022.8 1013.5
21 19.04 В 3 4000 м дымка 9/9 600 м
[Sc]
+4.1 +2.5 89 0 0 1021.7 1012.3
00 20.04 В 3 4000 м дымка 9/9 600 м
[Sc]
+3.8 +2.0 88 -0 -0 1021.1 1011.7
03 20.04 В 1 4000 м дымка 10/10 600 м
[Sc]
+4.0 +2.7 91 +2 +2 1021.4 1012.0 +3.7
06 20.04 СВ 4 20 км 9/9 600 м
[St]
+6.1 +1.9 74 +2 +3 1022.1 1012.8
09 20.04 В 3 20 км 9/9 1000 м
[Sc]
+8.5 +1.7 62 +6 +8 1022.3 1013.1
12 20.04 В 4 20 км 5/5 1000 м
[Sc]
+9.8 +2.0 58 +7 +10 1022.4 1013.2
15 20.04 В 3 20 км 8/8 1000 м
[Sc]
+8.2 -0.5 54 +6 +6 1022.9 1013.6 +11.2
18 20.04 В 1 10 км 4/0
[Cc]
+4.6 +0.1 73 +4 +4 1023.8 1014.4
21 20.04 В 1 10 км 4/0
[Cc]
+2.3 -0.1 84 +1 +1 1022.8 1013.3
00 21.04 В 1 10 км ясно +0.8 -1.1 87 -1 -1 1021.7 1012.2
03 21.04 СВ 2 20 км ясно +1.9 -0.6 83 -1 -1 1021.9 1012.4 +0.2
06 21.04 В 3 20 км 3/0
[Ac lent]
+9.1 +1.9 61 +7 +13 1021.4 1012.2
09 21.04 В 7-11
{14}
20 км 8/5 600 м
[Sc diur, vesp Ac lent]
+12.9 +0.9 44 +11 +12 1019.8 1010.7
12 21.04 В 7-12
{14}
20 км 8/8 600 м
[Sc diur, vesp]
+12.6 +2.6 51 +10 +11 1019.5 1010.3
15 21.04 В 5
{12}
20 км 9/6 600 м
[Cb cap Ac lent]
+9.9 +3.5 64 +7 +7 1020.4 1011.1 +14.7
18 21.04 В 3 10 км ясно +6.1 +1.9 74 +3 +3 1021.2 1011.9
21 21.04 В 2 10 км 3/0
[Ac lent]
+3.8 +1.5 85 +1 +1 1021.5 1012.1
00 22.04 В 2 4000 м дымка 8/0
[Ac lent]
+2.6 +1.0 89 -1 -1 1021.0 1011.6
03 22.04 В 2 20 км ясно +4.2 +2.7 90 +1 +2 1021.3 1011.9 +2.6

 

Местоположение метеостанции Гудермес (Чечня, Россия): широта 43.35 долгота 46.12 высота над уровнем моря 75 м.

В архиве по умолчанию представлена погода в Гудермесе за последнюю неделю. Архивные данные за месяц целиком и за предыдущие месяцы, начиная с января 2011 года, Вы можете получить, выбрав интересующий диапазон дат из раскрывающегося списка и нажав кнопку "Ввод!".


*Определитесь, кто Вы:
робот инопланетянин человек

Внимание! Время в таблицах - всемирное. Для получения местного времени необходимо прибавить поправку, которая равна 3 ч.

Смотрите также архив погоды в соседних городах и на ближайших метеорологических станциях:

Погода в Шелковской (Чечня, Россия) (28 км)
Погода в Грозном (Чечня, Россия) (34 км)
Погода в Хасавюрте (Дагестан, Россия) (39 км)
Погода в Бабаюрте (Дагестан, Россия) (60 км)
Погода в Шатое (Чечня, Россия) (63 км)
Погода в Кизляре (Дагестан, Россия) (72 км)
Погода в Наурской (Чечня, Россия) (73 км)
Погода в Терекли-Мектебе (Дагестан, Россия) (89 км)
Погода в Хунзахе (Дагестан, Россия) (99 км)
Погода в Буйнакске (Дагестан, Россия) (100 км)

Пояснения к столбцам:

Ветер - указаны скорость ветра в м/с - средняя за 10 мин, порывы в срок и между сроками (в фигурных скобках) и направление, откуда дует ветер: С - северный, СВ - северо-восточный, В - восточный, ЮВ - юго-восточный, Ю - южный, ЮЗ - юго-западный, З - западный, СЗ - северо-западный.
Видимость - горизонтальная дальность видимости в метрах или километрах. При видимости от 1 до 10 км при отсутствии осадков обычно наблюдается дымка, при ухудшении видимости до 1 км и менее - туман. В сухую погоду видимость может ухудшаться дымом, пылью или мглою.
Явления - указаны атмосферные явления, наблюдавшиеся в срок или в последний час перед сроком; фигурными скобками обозначены явления, наблюдавшиеся между сроками (за 1-3 часа до срока); квадратными скобками обозначены град или гололедные отложения с указанием их диаметра в мм.
Облачность - указаны через наклонную черту общая и нижняя облачность в баллах и высота нижней границы облаков в метрах; квадратными скобками обозначены формы облаков: Ci - перистые, Cs - перисто-слоистые, Cc - перисто-кучевые, Ac - высококучевые, As - высокослоистые, Sc - слоисто-кучевые, Ns - слоисто-дождевые, Cu - кучевые, Cb - кучево-дождевые. Подробнее классификацию облаков см. в Атласе облаков (PDF).
T - Температура воздуха - температура, измеренная на высоте 2 м над землей.
Td - Температура точки росы - температура, при понижении до которой содержащийся в воздухе водяной пар достигнет насыщения.
f - Относительная влажность воздуха - влажноcть воздуха, измеренная на высоте 2 м над землей.
Te - Эффективная температура - температура, которую ощущает одетый по сезону человек в тени. Характеристика душности погоды. При расчете учитывается влияние влажности воздуха и скорости ветра на теплоощущения человека.
Tes - Эффективная температура на солнце - температура, которую ощущает человек, с поправкой на солнечный нагрев. Характеристика знойности погоды. Зависит от высоты солнца над горизонтом, облачности и скорости ветра. Ночью, в пасмурную погоду, а также при ветре 12 м/с и более поправка равна нулю.
P - Атмосферное давление - приведенное к уровню моря атмосферное давление.
Po - Атмосферное давление - измеренное на уровне метеостанции атмосферное давление.
Tmin - Минимальная температура - минимум температуры воздуха на высоте 2 м над землей.
Tmax - Максимальная температура - максимум температуры воздуха на высоте 2 м над землей.
R - Количество осадков - Количество выпавших осадков за период времени, мм. При наведении курсора мыши на число - период времени, за который выпало указанное количество осадков.
R24 - Количество осадков - Количество выпавших осадков за 24 часа, мм.
S - Снежный покров - Высота снежного покрова, см. При наведении курсора мыши на число - состояние снежного покрова и степень покрытия местности в баллах.